Weather History for KCBM - January, 2013

Change the Weather History Date:

Monday, January 7, 2013

  Actual Average Record
Temperature  
Mean Temperature 39 °F -  
Max Temperature 52 °F 52 °F 74 °F (2012)
Min Temperature 26 °F 34 °F 8 °F (2014)
Degree Days  
Heating Degree Days 26    
Moisture  
Dew Point 29 °F    
Average Humidity 83    
Maximum Humidity 100    
Minimum Humidity 42    
Precipitation  
Precipitation 0.00 in - - ()
Sea Level Pressure  
Sea Level Pressure 30.34 in    
Wind  
Wind Speed 2 mph (North)    
Max Wind Speed 12 mph    
Max Gust Speed -    
Visibility 8 miles    
Events      
Averages and records for this station are not official NWS values.
T = Trace of Precipitation, MM = Missing Value Source: NWS Daily Summary

Daily Weather History Graph

Daily Weather History Graph

Search for Another Location

Airport or City:

Trip Planner

Search our weather history database for the weather conditions in past years. The results will help you decide how hot, cold, wet, or windy it might be!

Date:

Astronomy

Jan. 07, 2013 Rise Set
Actual Time 6:59 AM CST 5:01 PM CST
Civil Twilight 6:31 AM CST 5:28 PM CST
Nautical Twilight 6:00 AM CST 5:59 PM CST
Astronomical Twilight 5:30 AM CST 6:29 PM CST
Moon 2:25 AM CST (1/7) 1:10 PM CST (1/7)
Length of Visible Light 10h 57m
Length of Day
10h 02m
Waning Crescent, 22% of the Moon is Illuminated
Jan 7
Waning Crescent
Jan 11
New
Jan 18
First Quarter
Jan 26
Full
Feb 3
Last Quarter

Hourly Weather History & Observations

Time (CST) Temp. Windchill Dew Point Humidity Pressure Visibility Wind Dir Wind Speed Gust Speed Precip Events Conditions
12:55 AM 33.1 °F 27.7 °F 30.6 °F 90% 30.36 in 10.0 mi North 5.8 mph - N/A   Clear
1:55 AM 31.8 °F 28.5 °F 29.7 °F 92% 30.36 in 10.0 mi NNW 3.5 mph - N/A   Clear
2:55 AM 30.4 °F 26.9 °F 28.4 °F 92% 30.36 in 10.0 mi NW 3.5 mph - N/A   Clear
3:55 AM 30.7 °F - 29.1 °F 94% 30.36 in 10.0 mi Calm Calm - N/A   Clear
4:36 AM 26.6 °F - 24.8 °F 93% 30.37 in 4.0 mi Calm Calm - N/A   Clear
4:37 AM 26.6 °F - 24.8 °F 93% 30.37 in 3.0 mi Calm Calm - N/A   Clear
4:38 AM 26.6 °F - 24.8 °F 93% 30.37 in 2.5 mi Calm Calm - N/A   Clear
4:40 AM 26.6 °F - 24.8 °F 93% 30.37 in 1.8 mi Calm Calm - N/A   Clear
4:44 AM 26.6 °F - 26.6 °F 100% 30.37 in 2.0 mi Calm Calm - N/A   Clear
4:48 AM 26.6 °F - 26.6 °F 100% 30.37 in 3.0 mi Calm Calm - N/A   Clear
4:49 AM 26.6 °F - 26.6 °F 100% 30.37 in 4.0 mi Calm Calm - N/A   Clear
4:50 AM 26.6 °F - 26.6 °F 100% 30.37 in 5.0 mi Calm Calm - N/A   Clear
4:55 AM 27.1 °F 21.8 °F 25.9 °F 95% 30.37 in 4.0 mi North 4.6 mph - N/A   Clear
5:01 AM 28.4 °F 21.2 °F 26.6 °F 93% 30.37 in 5.0 mi NNE 6.9 mph - N/A   Clear
5:55 AM 28.9 °F 25.2 °F 27.9 °F 96% 30.39 in 10.0 mi North 3.5 mph - N/A   Clear
6:55 AM 29.1 °F 19.4 °F 28.0 °F 96% 30.37 in 10.0 mi NNE 11.5 mph - N/A   Clear
7:55 AM 30.6 °F 24.7 °F 28.9 °F 94% 30.40 in 10.0 mi North 5.8 mph - N/A   Clear
8:55 AM 34.7 °F 30.6 °F 30.2 °F 84% 30.41 in 10.0 mi NE 4.6 mph - N/A   Clear
9:55 AM 38.1 °F 35.7 °F 30.9 °F 75% 30.41 in 10.0 mi NNE 3.5 mph - N/A   Clear
10:55 AM 42.8 °F - 30.7 °F 62% 30.40 in 10.0 mi Calm Calm - N/A   Clear
11:55 AM 45.3 °F - 31.3 °F 58% 30.36 in 10.0 mi Calm Calm - N/A   Clear
12:55 PM 48.0 °F - 30.6 °F 51% 30.32 in 10.0 mi Calm Calm - N/A   Clear
1:55 PM 50.9 °F - 30.4 °F 45% 30.30 in 10.0 mi Variable 4.6 mph - N/A   Clear
2:55 PM 52.3 °F - 29.5 °F 42% 30.29 in 10.0 mi Calm Calm - N/A   Clear
3:55 PM 52.7 °F - 30.2 °F 42% 30.29 in 10.0 mi Calm Calm - N/A   Clear
4:55 PM 50.2 °F - 30.4 °F 47% 30.28 in 10.0 mi Calm Calm - N/A   Clear
5:55 PM 39.4 °F - 33.1 °F 78% 30.28 in 10.0 mi Calm Calm - N/A   Clear
6:55 PM 35.4 °F - 32.2 °F 88% 30.29 in 10.0 mi Calm Calm - N/A   Clear
7:55 PM 33.3 °F - 30.7 °F 90% 30.28 in 10.0 mi Calm Calm - N/A   Clear
8:55 PM 31.6 °F - 29.8 °F 93% 30.28 in 10.0 mi Calm Calm - N/A   Clear
9:55 PM 31.1 °F - 29.5 °F 94% 30.27 in 10.0 mi Calm Calm - N/A   Clear
10:55 PM 30.7 °F - 29.5 °F 95% 30.27 in 10.0 mi Calm Calm - N/A   Clear
11:55 PM 29.8 °F - 28.6 °F 95% 30.27 in 10.0 mi Calm Calm - N/A   Clear